• MPC Preparation (Info)

  • MPEC 2019-C66 : 2019 CU1

    The following Minor Planet Electronic Circular may be linked-to from your own Web pages, but must not otherwise be redistributed electronically.

    A form allowing access to any MPEC is at the bottom of this page.


    Read MPEC 2019-C65 Read MPEC 2019-C66


    M.P.E.C. 2019-C66                                Issued 2019 Feb. 7, 18:39 UT
    
         The Minor Planet Electronic Circulars contain information on unusual
             minor planets and routine data on comets.  They are published
        on behalf of Division F of the International Astronomical Union by the
              Minor Planet Center, Smithsonian Astrophysical Observatory,
                              Cambridge, MA 02138, U.S.A.
    
                 Prepared using the Tamkin Foundation Computer Network
    
                                  MPC@CFA.HARVARD.EDU
                URL https://www.minorplanetcenter.net/    ISSN 1523-6714
    
                                       2019 CU1
    
    Observations:
         K19C01U* C2019 02 04.62350414 14 29.64 -08 20 04.7          19.25cVEC066T05
         K19C01U  C2019 02 04.63238414 14 26.33 -08 19 58.9          19.49cVEC066T05
         K19C01U  C2019 02 04.64056014 14 23.37 -08 19 54.5          19.01cVEC066T05
         K19C01U  C2019 02 04.64938914 14 20.15 -08 19 49.0          18.84cVEC066T05
         K19C01U pC2019 02 05.07142414 11 59.43 -08 15 51.3          19.5 GVEC066L01
         K19C01U KC2019 02 05.07314914 11 58.80 -08 15 50.7          19.5 GVEC066L01
         K19C01U KC2019 02 05.07917914 11 56.68 -08 15 47.8          19.4 GVEC066L01
         K19C01U KC2019 02 05.08154514 11 55.85 -08 15 46.5          19.6 GVEC066L01
         K19C01U KC2019 02 06.15209 14 06 02.49 -08 04 55.9                oEC066K88
         K19C01U KC2019 02 06.15296414 06 03.186-08 04 50.74         19.5 GVEC066C65
         K19C01U KC2019 02 06.15709 14 06 00.82 -08 04 52.4          19.4 RoEC066K88
         K19C01U  C2019 02 06.17155 14 05 58.01 -08 04 28.2          19.0 GVEC066J04
         K19C01U  C2019 02 06.17220 14 05 57.79 -08 04 27.7          19.1 GVEC066J04
         K19C01U  C2019 02 06.17283 14 05 57.57 -08 04 27.4          19.0 GVEC066J04
         K19C01U  C2019 02 06.18739 14 05 50.91 -08 04 35.8          19.4 VVEC066033
         K19C01U  C2019 02 06.18826 14 05 50.59 -08 04 35.3          19.1 VVEC066033
         K19C01U  C2019 02 06.18913 14 05 50.30 -08 04 34.9          19.4 VVEC066033
         K19C01U  C2019 02 06.19010 14 05 49.99 -08 04 33.8          19.2 VVEC066033
         K19C01U KC2019 02 06.90484514 02 05.919-07 56 04.70         19.2 GVEC066181
         K19C01U KC2019 02 06.94631214 01 52.170-07 55 40.66         19.6 GVEC066181
         K19C01U KC2019 02 06.98777514 01 38.329-07 55 16.02         20.1 GVEC066181
         K19C01U KC2019 02 07.10192 14 01 02.49 -07 55 08.0                VEC066204
         K19C01U KC2019 02 07.11328 14 00 58.80 -07 55 01.5          19.3 GVEC066204
         K19C01U KC2019 02 07.12696 14 00 54.26 -07 54 52.9                VEC066204
         K19C01U KC2019 02 07.12892 14 00 53.06 -07 54 53.0          20.1 RoEC066K88
         K19C01U KC2019 02 07.13133 14 00 52.28 -07 54 52.0          20.0 RoEC066K88
         K19C01U KC2019 02 07.13374 14 00 51.47 -07 54 50.1          19.9 RoEC066K88
         K19C01U KC2019 02 07.67944 13 58 03.46 -07 47 46.5          19.9 GVEC066474
         K19C01U KC2019 02 07.68185 13 58 02.64 -07 47 44.7          19.1 GVEC066474
         K19C01U KC2019 02 07.68425 13 58 01.89 -07 47 43.7          19.4 GVEC066474
    
    Observer details:
    033 Karl Schwarzschild Observatory, Tautenburg.  Observers C. Hoegner,
        B. Stecklum.  Measurer B. Stecklum.  1.34-m f/3 Schmidt + CCD.
    181 Observatoire des Makes, Saint-Louis.  Observers F. Vachier, A. Klotz,
        J.-P. Teng, A. Peyrot, P. Thierry, J. Berthier.  Measurer M. Micheli.
        0.6-m f/8 reflector + CCD.
    204 Schiaparelli Observatory.  Observer L. Buzzi.  0.84-m f/3.5 reflector +
        CCD.
    474 Mount John Observatory, Lake Tekapo.  Observers A. C. Gilmore,
        P. M. Kilmartin.  Measurer P. M. Kilmartin.  1.0-m f/7.7 reflector + CCD.
    C65 Observatori Astronomic del Montsec.  Observer T. Santana-Ros.  Measurers
        M. Micheli, T. Santana-Ros.  0.80-m f/9.6 Ritchey-Chretien + CCD.
    J04 ESA Optical Ground Station, Tenerife.  Observer P. Ruiz.  Measurers
        A. Knoefel, D. Koschny, M. Busch, M. Micheli, E. Schwab.  1.0-m f/4.4
        reflector + CCD.
    K88 GINOP-KHK, Piszkesteto.  Observer K. Sarneczky.  1.02-m
        Ritchey-Chretien + CCD.
    L01 Visnjan Observatory, Tican.  Observers K. Korlevic, G. Kervina,
        F. Valentine.  Measurer K. Korlevic.  1.0-m f/2.9 reflector + CCD.
    T05 ATLAS-HKO, Haleakala.  Observers L. Denneau, J. Tonry, A. Heinze,
        H. Weiland, H. Flewelling.  Measurers L. Denneau, J. Tonry, A. Heinze,
        H. Weiland, H. Flewelling, B. Stalder, A. Fitzsimmons, D. Young,
        N. Erasmus.  0.5-m reflector + CCD.
    
    Orbital elements:
    2019 CU1                                            PHA, Earth MOID = 0.0142 AU
    Epoch 2019 Apr. 27.0 TT = JDT 2458600.5                 MPC
    M  51.63236              (2000.0)            P               Q
    n   0.41610418     Peri.  100.41303     +0.08586729     -0.99627358
    a   1.7769205      Node   344.65404     +0.90168722     +0.08117194
    e   0.5166463      Incl.    1.75593     +0.42377703     +0.02915593
    P   2.37           H   21.4           G   0.15           U   7
    Residuals in seconds of arc
    190204 T05  0.5+  0.3-    190206 K88  0.6+  0.1+    190206 181  0.0   0.2+
    190204 T05  0.5-  0.2+    190206 J04  0.1-  0.1-    190207 204  0.0   0.0
    190204 T05  0.0   0.3-    190206 J04  0.1-  0.0     190207 204  0.6+  0.3-
    190204 T05  0.1+  0.1-    190206 J04  0.1-  0.1-    190207 204  0.1-  0.0
    190205 L01  0.3+  0.8+    190206 033  0.3+  0.1-    190207 K88  0.1-  0.2+
    190205 L01  0.1-  0.4+    190206 033  0.1-  0.2-    190207 K88  0.0   0.3-
    190205 L01  0.2-  0.2-    190206 033  0.1-  0.3-    190207 K88  0.2-  0.1+
    190205 L01  0.3-  0.3-    190206 033  0.2+  0.2+    190207 474  0.3+  0.0
    190206 K88  0.1+  0.3-    190206 181  0.0   0.2+    190207 474  0.3-  0.3+
    190206 C65  0.2-  0.2+    190206 181  0.4-  0.1+    190207 474  0.1+  0.2-
    
    Ephemeris:
    2019 CU1                 a,e,i = 1.78, 0.52, 2                   q = 0.8589
    Date    TT    R. A. (2000) Decl.     Delta      r     Elong.  Phase     V
    2019 01 08    18 49 44.2 -10 21 48   0.1046  0.8819    13.3   165.1    29.4
    ...
    2019 01 23    15 50 13.2 -10 16 43   0.1039  0.9452    65.2   109.1    20.5
    ...
    2019 01 31    14 43 19.1 -09 05 04   0.1235  0.9914    89.3    83.5    19.8
    ...
    2019 02 06    14 06 51.8 -08 05 38   0.1416  1.0300   104.2    68.1    19.6
    2019 02 07    14 01 33.3 -07 55 23   0.1448  1.0368   106.5    65.8    19.6
    2019 02 08    13 56 25.1 -07 45 02   0.1481  1.0436   108.8    63.5    19.6
    ...
    2019 02 14    13 28 35.6 -06 40 35   0.1687  1.0856   121.7    50.7    19.6
    ...
    2019 02 22    12 57 20.8 -05 09 09   0.1997  1.1445   137.6    35.6    19.7
    ...
    2019 03 09    12 11 53.5 -02 17 48   0.2750  1.2595   164.2    12.4    19.8
    
    A. U. Tomatic                (C) Copyright 2019 MPC           M.P.E.C. 2019-C66
    

    Read MPEC 2019-C65 Read MPEC 2019-C66


    MPEC number:

    Enter an MPEC number in one of the following forms:

    • 1997-B01 (the full form)
    • J97B01 (the packed version of the full form)
    • B01 (the abbreviated form)